Simultaneous Nadir Overpasses (SNOs) Predictions

Prediction of SNOs between AQUA and NPP Satellite Orbit:

Table of predicted SNOs for the next 14.0 days since TLE Epoch: 8/11/2018
Index Date (AQUA) Time (AQUA) Lat,Lon (AQUA) SZA (AQUA ) Date (NPP) Time (NPP) Lat,Lon (NPP) SZA (NPP ) Distance(km) Time Diff (sec)
1 08/12/2018 22:39:18 75.12, 76.75 84.03 08/12/2018 22:38:53 75.12, 76.75 84.05 0.16 25
2 08/12/2018 23:28:20 -76.37,-111.91 97.42 08/12/2018 23:29:12 -76.38,-111.84 97.48 2.09 52
3 08/15/2018 14:06:37 -74.22, 22.76 94.19 08/15/2018 14:05:25 -74.22, 22.75 94.13 0.37 72
4 08/15/2018 14:55:40 75.37,-166.69 84.53 08/15/2018 14:55:45 75.36,-166.78 84.55 2.62 5
5 08/18/2018 06:22:57 -74.57, 139.47 93.78 08/18/2018 06:22:15 -74.56, 139.40 93.72 2.51 42
6 08/18/2018 07:11:54 76.00, -48.95 84.60 08/18/2018 07:12:28 76.01, -48.92 84.57 0.99 34
7 08/20/2018 22:39:07 -75.36,-102.58 93.85 08/20/2018 22:38:54 -75.37,-102.53 93.85 1.53 13
8 08/20/2018 23:28:15 76.23, 67.66 85.16 08/20/2018 23:29:19 76.23, 67.63 85.11 0.92 64
9 08/23/2018 14:06:21 74.62,-156.26 87.82 08/23/2018 14:05:20 74.63,-156.18 87.85 2.62 61




NCC Satellite Simultaneous Nadir Overpasses (SNOs) Prediction Service
